Location: Newark
(29.9790°N, 31.1340°E)
Time: 11:10:17
(UTC+00:00)

A-11 Canister half - Pass Details

Date: 30 January 2020
Orbit: 1524 x 1684 km, 47.3° (Epoch: 25 February)

Event Time Altitude Azimuth Distance (km) Brightness Sun altitude
Rises 16:35:02 0° 289° (WNW) 4,679 12.6 -14.3°
Reaches altitude 10° 16:38:46 10° 301° (WNW) 3,708 11.7 -15.0°
Maximum altitude 16:46:24 27° 357° (N) 2,646 10.2 -16.7°
Enters shadow 16:52:26 15° 44° (NE) 3,386 10.3 -17.9°
